www.pogodaiklimat.ru

Погода и климат >> Архив погоды >> Беларусь >> Минск


АРХИВ ПОГОДЫ в Минске

Время (UTC), дата Ветер
(напр.,м/с)
 
Видим.   Явления Облачность Т
(С)
Тd
(С)
f
(%)
Тe
(С)
Тes
(С)
Комфортность P
(гПа)
Po
(гПа)
Тmin
(С)
Tmax
(С)
R
(мм)
R24
(мм)
S
(см)
09 19.03 ЮЗ 5
{10}
15 км 8/8 1020 м
[Sc]
+6.6 -0.4 61 +3 +4 тепло 1017.5 989.3
12 19.03 З 5-10
{12}
20 км 8/8 1080 м
[Sc]
+7.6 -1.9 51 +4 +5 по сезону 1018.3 990.2
15 19.03 З 3
{10}
20 км {ливн. осадки} 8/8 1080 м
[Sc Ac trans]
+6.0 -3.9 49 +3 +4 по сезону 1020.4 992.1
18 19.03 З 2
{10}
20 км 4/0
[Ac trans]
+4.0 -2.2 64 +2 +2 по сезону 1022.6 994.0 +8.9 0.0
21 19.03 З 2 20 км 8/0
[Ac trans]
+3.2 -1.7 70 +1 +1 по сезону 1024.3 995.6
00 20.03 З 2 20 км 3/0
[Ac trans]
+1.7 -1.5 79 -2 -2 по сезону 1025.3 996.4
03 20.03 С 1 15 км ясно -1.4 -2.5 92 -4 -4 по сезону 1026.4 997.2
06 20.03 З 2 20 км 9/9 1200 м
[Sc]
+0.7 -1.5 85 -3 -3 по сезону 1027.5 998.5 -1.7
09 20.03 З 3 20 км 10/10 700 м
[Sc]
+2.1 -3.0 69 -2 -2 по сезону 1028.4 999.5
12 20.03 З 3 20 км 9/9 1020 м
[Sc]
+3.5 -4.0 58 0 +1 по сезону 1028.9 1000.1
15 20.03 З 2 20 км 6/6 1200 м
[Sc]
+5.0 -4.0 52 +3 +3 по сезону 1027.9 999.3
18 20.03 ЮЗ 2 20 км 8/0
[Ac trans]
+3.2 -3.0 64 +1 +1 по сезону 1027.6 998.8 +5.1
21 20.03 ЮЗ 3 20 км 8/0
[Ac trans]
+4.0 -3.1 60 +1 +1 по сезону 1025.9 997.2
00 21.03 З 3
{10}
10 км {ливн. осадки} 10/10 720 м
[Sc]
+3.7 -1.9 67 0 0 по сезону 1024.1 995.5
03 21.03 З 3 20 км {ливн. осадки} 10/10 630 м
[Sc]
+3.7 -0.7 73 0 0 по сезону 1023.7 995.1
06 21.03 СЗ 3 15 км {ливн. осадки} 8/8 840 м
[Sc]
+4.2 +1.4 82 +1 +1 тепло 1025.2 996.6 +2.4 0.0
09 21.03 СЗ 4 18 км 8/8 960 м
[Sc]
+6.1 +0.2 66 +3 +4 по сезону 1026.0 997.6
12 21.03 З 3 22 км 8/6 1080 м
[Sc Ac trans]
+8.7 +1.1 59 +7 +8 тепло 1025.4 997.2
15 21.03 З 4 21 км 10/4 600 м
[Sc Ac As]
+8.3 +1.5 62 +5 +6 тепло 1024.5 996.3
21 21.03 З 3 15 км в посл. час ливневой дождь 10/10 660 м
[Sc]
+7.1 +3.2 76 +4 +4 тепло 1021.9 993.7
00 22.03 З 4 12 км {ливн. осадки, дождь} 10/10 360 м
[Sc]
+7.9 +5.4 84 +5 +5 тепло 1019.2 991.2
03 22.03 З 4
{10}
19 км {дождь} 10/10 330 м
[Sc]
+8.3 +6.1 86 +5 +5 тепло 1018.7 990.7
06 22.03 СЗ 4
{11}
15 км {ливн. осадки, дождь} 9/9 420 м
[Sc]
+7.5 +4.6 82 +4 +4 тепло 1020.0 991.9 +6.6 0.0
09 22.03 СЗ 8-14
{13}
15 км {ливн. осадки, дождь} 6/6 1200 м
[Sc]
+7.5 -5.2 40 +3 +4 по сезону 1022.3 994.1
12 22.03 СЗ 6-12
{14}
15 км {ливн. осадки, дождь} ясно +8.1 -8.9 29 +5 +7 по сезону 1023.7 995.5
15 22.03 СЗ 4-10
{15}
15 км ясно +7.6 -8.9 30 +5 +6 тепло 1024.4 996.1
18 22.03 СЗ 4 18 км ясно +4.6 -8.8 37 +1 +1 по сезону 1026.0 997.4 +8.4 0.5
21 22.03 СЗ 3 20 км ясно +2.3 -7.9 47 -1 -1 по сезону 1027.1 998.2
00 23.03 СЗ 2 20 км ясно +0.2 -6.2 62 -3 -3 по сезону 1028.0 998.9
03 23.03 СЗ 1 25 км ясно -1.7 -5.7 74 -4 -4 по сезону 1028.5 999.2
06 23.03 СЗ 3 25 км ясно +0.4 -5.6 64 -4 -2 по сезону 1028.9 999.8 -1.8
09 23.03 СЗ 3 25 км 6/0
[Ci fib]
+5.4 -7.4 39 +3 +9 по сезону 1027.9 999.3
12 23.03 С 2 25 км 6/0
[Ci fib]
+8.6 -8.0 30 +8 +13 тепло 1025.4 997.2
15 23.03 З 2 20 км 6/0
[Ci fib]
+9.6 -9.5 25 +9 +10 тепло 1023.3 995.2
18 23.03 С 1 17 км 4/0
[Ci fib]
+1.0 -4.8 65 -0 -0 по сезону 1022.6 993.7 +9.9
21 23.03 ЮЗ 2 15 км 8/0
[Ci fib]
+4.4 -5.4 49 +2 +2 по сезону 1020.2 991.7
00 24.03 З 1 13 км слаб. дождь 10/10 960 м
[Sc]
+4.4 -1.0 68 +3 +3 тепло 1017.1 988.7
03 24.03 СЗ 2 14 км {дождь} 4/0
[Ci fib]
+4.3 +0.6 77 +2 +2 тепло 1016.0 987.7
06 24.03 СЗ 4 28 км {дождь} 6/0
[Ac trans]
+5.1 +1.6 78 +1 +2 по сезону 1016.6 988.3 -0.7 1
09 24.03 СЗ 4 10 км 3/0
[Ci fib]
+7.5 -1.5 53 +5 +10 тепло 1016.6 988.6
12 24.03 СЗ 5 25 км 6/0
[Ac trans]
+9.0 -3.9 40 +6 +9 по сезону 1015.9 988.0
15 24.03 СЗ 4
{10}
25 км 4/0
[Ac trans]
+8.3 -6.6 34 +6 +6 тепло 1015.1 987.2
18 24.03 СЗ 1 20 км ясно +3.5 -3.5 60 +3 +3 по сезону 1015.6 987.2 +9.5
21 24.03 штиль 0 10 км 3/0
[Ci fib]
-1.0 -3.4 84 -2 -2 по сезону 1015.4 986.5
00 25.03 штиль 0 10 км 3/0
[Ac trans]
-2.3 -3.7 90 -4 -4 по сезону 1014.2 985.2
03 25.03 штиль 0 10 км 4/0
[Ac trans]
-2.8 -3.8 93 -4 -4 по сезону 1012.8 983.8
06 25.03 Ю 1 19 км 8/0
[Ac trans Ci fib]
+2.2 -1.2 78 +1 +3 по сезону 1011.0 982.6 -3.0
09 25.03 З 3 16 км 8/3 600 м
[Sc Ci fib]
+5.8 -2.3 56 +3 +7 по сезону 1009.4 981.4
12 25.03 СЗ 4 17 км 8/6 1380 м
[Sc Ci fib]
+6.5 -3.2 50 +3 +5 по сезону 1008.2 980.3
15 25.03 С 2 19 км 8/0
[Ac trans Ci fib]
+5.9 -2.4 55 +4 +5 по сезону 1008.0 980.0
18 25.03 штиль 0 12 км 6/0
[Ci fib]
-0.4 -2.6 85 -2 -2 по сезону 1008.3 979.7 +7.4
21 25.03 СЗ 1 12 км 6/0
[Ac trans]
+0.2 -1.9 86 -2 -2 по сезону 1008.5 979.9
00 26.03 З 2 17 км 4/0
[Ci fib]
+0.7 -1.5 85 -3 -3 по сезону 1008.7 980.2
03 26.03 З 2 15 км слаб. снег 8/6 600 м
[Sc Ac trans]
+1.1 -1.0 86 -2 -2 по сезону 1009.1 980.6
06 26.03 СЗ 4 18 км {снег} 8/8 570 м
[Sc]
-0.2 -3.6 78 -6 -5 прохладно 1010.5 981.8 -1.4 0.6

 

Местоположение метеостанции Минск (город Минск, Беларусь): широта 53.96 долгота 27.70 высота над уровнем моря 231 м.

В архиве по умолчанию представлена погода в Минске за последнюю неделю. Архивные данные за месяц целиком и за предыдущие месяцы, начиная с января 2011 года, Вы можете получить, выбрав интересующий диапазон дат из раскрывающегося списка и нажав кнопку "Ввод!".


*Определитесь, кто Вы:
робот инопланетянин человек

Внимание! Время в таблицах - всемирное. Для получения местного времени необходимо прибавить поправку, которая равна 3 ч.

Смотрите также архив погоды в соседних городах и на ближайших метеорологических станциях:

Погода в Борисове (Минская область, Беларусь) (63 км)
Погода в Марьиной Горке (Минская область, Беларусь) (63 км)
Погода в Вилейке (Минская область, Беларусь) (77 км)
Погода в Воложине (Минская область, Беларусь) (78 км)
Погода в Столбцах (Минская область, Беларусь) (83 км)
Погода в Березино (Минская область, Беларусь) (86 км)
Погода в Березинском Заповеднике (Минская область, Беларусь) (95 км)
Погода в Докшицах (Витебская область, Беларусь) (102 км)
Погода в Слуцке (Минская область, Беларусь) (104 км)
Погода в Кличеве (Могилевская область, Беларусь) (118 км)

Пояснения к столбцам:

Ветер - указаны скорость ветра в м/с - средняя за 10 мин, порывы в срок и между сроками (в фигурных скобках) и направление, откуда дует ветер: С - северный, СВ - северо-восточный, В - восточный, ЮВ - юго-восточный, Ю - южный, ЮЗ - юго-западный, З - западный, СЗ - северо-западный.
Видимость - горизонтальная дальность видимости в метрах или километрах. При видимости от 1 до 10 км при отсутствии осадков обычно наблюдается дымка, при ухудшении видимости до 1 км и менее - туман. В сухую погоду видимость может ухудшаться дымом, пылью или мглою.
Явления - указаны атмосферные явления, наблюдавшиеся в срок или в последний час перед сроком; фигурными скобками обозначены явления, наблюдавшиеся между сроками (за 1-3 часа до срока); квадратными скобками обозначены град или гололедные отложения с указанием их диаметра в мм.
Облачность - указаны через наклонную черту общая и нижняя облачность в баллах и высота нижней границы облаков в метрах; квадратными скобками обозначены формы облаков: Ci - перистые, Cs - перисто-слоистые, Cc - перисто-кучевые, Ac - высококучевые, As - высокослоистые, Sc - слоисто-кучевые, Ns - слоисто-дождевые, Cu - кучевые, Cb - кучево-дождевые. Подробнее классификацию облаков см. в Атласе облаков (PDF).
T - Температура воздуха - температура, измеренная на высоте 2 м над землей.
Td - Температура точки росы - температура, при понижении до которой содержащийся в воздухе водяной пар достигнет насыщения.
f - Относительная влажность воздуха - влажноcть воздуха, измеренная на высоте 2 м над землей.
Te - Эффективная температура - температура, которую ощущает одетый по сезону человек в тени. Характеристика душности погоды. При расчете учитывается влияние влажности воздуха и скорости ветра на теплоощущения человека.
Tes - Эффективная температура на солнце - температура, которую ощущает человек, с поправкой на солнечный нагрев. Характеристика знойности погоды. Зависит от высоты солнца над горизонтом, облачности и скорости ветра. Ночью, в пасмурную погоду, а также при ветре 12 м/с и более поправка равна нулю.
P - Атмосферное давление - приведенное к уровню моря атмосферное давление.
Po - Атмосферное давление - измеренное на уровне метеостанции атмосферное давление.
Tmin - Минимальная температура - минимум температуры воздуха на высоте 2 м над землей.
Tmax - Максимальная температура - максимум температуры воздуха на высоте 2 м над землей.
R - Количество осадков - Количество выпавших осадков за период времени, мм. При наведении курсора мыши на число - период времени, за который выпало указанное количество осадков.
R24 - Количество осадков - Количество выпавших осадков за 24 часа, мм.
S - Снежный покров - Высота снежного покрова, см. При наведении курсора мыши на число - состояние снежного покрова и степень покрытия местности в баллах.